Location: Brachbach
(49.1847°N, 9.7240°E)
Time: 07:58:13
(UTC+00:00)

FO-29 - Pass Details

Date: 20 March 2026
Orbit: 801 x 1320 km, 98.5° (Epoch: 17 April)

Event Time Altitude Azimuth Distance (km) Brightness Sun altitude
Rises 18:10:50 0° 23° (NNE) 4,203 12.7 -6.8°
Reaches altitude 10° 18:14:19 10° 38° (NE) 3,287 12.0 -7.4°
Maximum altitude 18:19:57 22° 86° (E) 2,560 11.1 -8.3°
Drops below altitude 10° 18:25:39 10° 133° (SE) 3,343 11.8 -9.2°
Sets 18:29:11 0° 148° (SSE) 4,292 12.4 -9.8°
